PEGASUS DEB, 23986

Orbit data source: Space-Track

PEGASUS DEB, 23986 is space debris in LEO originally from a launch on Thu, 19 May 1994 UTC launched from the Air Force Western Test Range (AFWTR). Debris objects in space refer to the collection of defunct objects orbiting the Earth. Examples of debris include non-operational satellites, rocket bodies, and fragments generated from explosions, collisions, or faulty payload assembly.

Loading next visibility...
Identifier
23986, 1994-029AG
Orbit
LEO
Country
Flag of USUS
Related business
Manufacturer
Unknown
Mission
Spacecraft
Bus & Motor
Unknown
Mass
Unknown
Launch date (UTC)
1994-05-19 (32 years ago)
Launch vehicle
Unknown
Launch site
Air Force Western Test Range (AFWTR)
Object type
Payload
Rocket body
Debris
Shape & HBR
Unknown shape, 0.1 m
Radar Cross Section
Small (<0.1 m²)

Expand to show TLE details & history
Last TLE update: 7 hours ago

TLE from 7 hours ago
0 PEGASUS DEB
1 23986U 94029AG  26062.48224666  .00023814  00000-0  63941-3 0  9990
2 23986  82.0362  92.7821 0030747 176.7311 183.4139 15.37305629614503
Epoch: 2026-03-03T11:34Z
TLE epoch observation values (Epoch: 2026-03-03T11:34:26.111Z)
Latitude
-0.00004°
Longitude
117.91263°
Altitude
478.153 km
Speed
7.615 km/s
True Right ascension
06h 11m 07s
True Declination
0° 00' 00"
Sunlit
Object was in daylight at epoch
Visualization orbit readout
Latitude
Unknown
Longitude
Unknown
Altitude
Unknown
Speed
Unknown
Apparent Right ascension
Unknown
Apparent Declination
Unknown
Sunlit
N/A
Visualization observer readout
Local Sidereal Time
22:05:17
Azimuth
Unknown
Elevation
Unknown
Doppler factor
Unknown
Orbital elements
Apogee altitude
472.046 km
Perigee altitude
430.051 km
Semi-major axis
6,829.185 km
Eccentricity
0.00307
Inclination
82.0362°
RAAN
92.7821°
Arg. of periapsis
176.7311°
True anomaly
183.393°
Mean anomaly
183.4139°
Eccentric anomaly
183.40344°
Mean motion
3.84583 °/min
Orbital period
93.61 mins
BSTAR
0.00063941
Loading maneuver chart data...
Computing Atmospheric mass density...
Loading historical data...
Loading historical data...
Loading historical data...
Loading historical data...
Loading historical data...
Loading historical data...
Loading historical data...

Documentation

Showing up to 5 results
|